Aspen, CO

7:54 PM MDT on August 29, 2016 (GMT -0600)
Aspen-Pitkin County / Sardy Field

Weather History for KASE - November, 2013

Change the Weather History Date:

Tuesday, November 12, 2013

  Actual Average Record
Temperature  
Mean Temperature 39 °F 31 °F  
Max Temperature 56 °F 43 °F 66 °F (1989)
Min Temperature 22 °F 19 °F 1 °F (2012)
Degree Days  
Heating Degree Days 26 34  
Month to date heating degree days 385 378  
Since 1 July heating degree days 1590 1633  
Cooling Degree Days 0 0  
Month to date cooling degree days 0 0  
Year to date cooling degree days 69 39  
Moisture  
Dew Point 16 °F    
Average Humidity 43    
Maximum Humidity 74    
Minimum Humidity 11    
Precipitation  
Precipitation 0.00 in 0.05 in 0.25 in (1985)
Month to date precipitation 0.24 0.62  
Year to date precipitation 14.44 15.37  
Sea Level Pressure  
Sea Level Pressure 30.46 in    
Wind  
Wind Speed 6 mph (SW)    
Max Wind Speed 12 mph    
Max Gust Speed 14 mph    
Visibility 10 miles    
Events      
T = Trace of Precipitation, MM = Missing Value Source: NWS Daily Summary

Daily Weather History Graph

Daily Weather History Graph

Search for Another Location

Airport or City:

Trip Planner

Search our weather history database for the weather conditions in past years. The results will help you decide how hot, cold, wet, or windy it might be!

Date:

Astronomy

Nov. 12, 2013 Rise Set
Actual Time 6:47 AM MST 4:55 PM MST
Civil Twilight 6:19 AM MST 5:23 PM MST
Nautical Twilight 5:47 AM MST 5:55 PM MST
Astronomical Twilight 5:15 AM MST 6:27 PM MST
Moon 2:09 PM MST (11/12) 1:42 AM MST (11/12)
Length of Visible Light 11h 04m
Length of Day
10h 07m
Waxing Gibbous, 77% of the Moon is Illuminated
Nov 12
Waxing Gibbous
Nov 17
Full
Nov 25
Last Quarter
Dec 2
New
Dec 9
First Quarter

Hourly Weather History & Observations

Time (MST) Temp. Windchill Dew Point Humidity Pressure Visibility Wind Dir Wind Speed Gust Speed Precip Events Conditions
12:53 AM 28.9 °F 22.8 °F 18.0 °F 64% 30.39 in 10.0 mi SSW 5.8 mph - N/A   Clear
1:53 AM 28.0 °F 21.7 °F 18.0 °F 66% 30.39 in 10.0 mi SSW 5.8 mph - N/A   Clear
2:53 AM 26.1 °F - 18.0 °F 71% 30.43 in 10.0 mi Calm Calm - N/A   Clear
3:53 AM 27.0 °F 20.5 °F 18.0 °F 69% 30.45 in 10.0 mi SSW 5.8 mph - N/A   Clear
4:53 AM 27.0 °F 19.5 °F 17.1 °F 66% 30.53 in 10.0 mi SSW 6.9 mph - N/A   Clear
5:53 AM 24.1 °F 16.0 °F 17.1 °F 75% 30.58 in 10.0 mi SSW 6.9 mph - N/A   Clear
6:53 AM 24.1 °F - 17.1 °F 75% 30.59 in 10.0 mi Calm Calm - N/A   Clear
7:53 AM 33.1 °F - 19.0 °F 56% 30.55 in 10.0 mi Calm Calm - N/A   Clear
8:53 AM 39.0 °F - 19.9 °F 46% 30.54 in 10.0 mi Calm Calm - N/A   Clear
9:53 AM 44.1 °F 41.5 °F 21.0 °F 40% 30.51 in 10.0 mi North 4.6 mph - N/A   Clear
10:53 AM 46.9 °F - 21.0 °F 36% 30.48 in 10.0 mi North 6.9 mph - N/A   Clear
11:53 AM 51.1 °F - 19.9 °F 29% 30.43 in 10.0 mi NNW 5.8 mph - N/A   Clear
12:53 PM 54.0 °F - 12.9 °F 20% 30.38 in 10.0 mi North 5.8 mph - N/A   Clear
1:53 PM 55.0 °F - 1.0 °F 11% 30.38 in 10.0 mi NNW 8.1 mph - N/A   Clear
2:53 PM 55.9 °F - 3.9 °F 12% 30.38 in 10.0 mi NNW 4.6 mph - N/A   Clear
3:53 PM 50.0 °F - 12.0 °F 22% 30.39 in 10.0 mi NNW 3.5 mph - N/A   Clear
4:53 PM 41.0 °F 35.8 °F 17.1 °F 38% 30.44 in 10.0 mi South 8.1 mph - N/A   Clear
5:53 PM 35.1 °F 28.6 °F 18.0 °F 50% 30.51 in 10.0 mi SSW 8.1 mph - N/A   Clear
6:53 PM 34.0 °F 27.2 °F 17.1 °F 50% 30.55 in 10.0 mi SSW 8.1 mph - N/A   Clear
7:53 PM 33.1 °F 24.9 °F 16.0 °F 50% 30.51 in 10.0 mi SSW 10.4 mph - N/A   Clear
8:53 PM 33.1 °F 25.5 °F 15.1 °F 48% 30.47 in 10.0 mi SSW 9.2 mph - N/A   Clear
9:53 PM 32.0 °F 24.2 °F 15.1 °F 50% 30.43 in 10.0 mi SSW 9.2 mph - N/A   Clear
10:53 PM 30.0 °F 22.4 °F 14.0 °F 51% 30.42 in 10.0 mi SW 8.1 mph - N/A   Unknown
11:53 PM 28.9 °F 22.8 °F 14.0 °F 54% 30.40 in 10.0 mi South 5.8 mph - N/A   Clear